SKY MUSTER 1 (NBN1A)

Last updated on Sun Apr 12 2026 00:02:53 GMT+0000 (Coordinated Universal Time)

1 40940U 15054A 26100.90674861 -.00000277 00000+0 00000+0 0 9997 2 40940 0.0129 249.0545 0001679 138.5564 278.2070 1.00271329 38580
UTC large
Height (km)
Speed (km/s)
/
Latitude / Longitude
Inclination (degrees)
Orbital Period (minutes)
Azimuth
Elevation
Range (km)
Doppler Factor

Next 0 passes for location: London (51.5072 / 0.1276)

Sorry there are no passes over London.
SKY MUSTER 1 (NBN1A)